[[{"header":{"parameterUnit":"m.s-1","parameterCategory":1,"la1":30.2991,"la2":30.254,"lo1":-89.0895,"lo2":-89.0444,"dy":0.0017,"dx":0.0017,"nx":28,"ny":28,"refTime":"2026-01-11T03:00:00:Z","depth":0,"parameterNumber":2,"parameterNumberName":"U-component_of_WINDS"},"data":[0,0,0,0,0,0,0,0,0,0,0,0,0,0,0,0,0,0,0,0,0,0,0,0,0,0,0,0,0,0,0,0,0,0,0,0,0,0,0,0,0,0,0,0,0,0,0,0,0,0,0,0,0,0,0,0,0,0,2.0207,2.0208,0,2.0265,2.0266,2.0267,2.0279,2.0278,2.0278,2.0278,2.0336,2.0338,2.034,0,0,0,0,0,0,0,0,0,0,0,0,0,2.0106,2.0108,2.0207,2.0208,2.0208,2.0265,2.0266,2.0267,2.0279,2.0278,2.0278,2.0277,2.0335,2.0338,2.034,0,0,0,0,0,0,0,0,0,0,0,0,0,2.0156,2.0109,2.0207,2.0221,2.0223,2.0265,2.0266,2.0267,2.0279,2.0278,2.0278,2.0277,2.0335,2.0337,2.034,2.0371,0,0,2.0349,2.0351,0,0,0,0,0,0,0,0,2.0153,2.0159,2.0218,2.022,2.0223,2.0264,2.0252,2.0302,2.0279,2.0258,2.0278,2.0277,2.0313,2.0317,2.033,2.0374,2.0377,2.035,2.0351,2.0353,2.0353,0,0,0,0,0,0,0,2.015,2.0157,2.023,2.0219,2.0222,2.0225,2.0231,2.0262,2.0288,2.026,2.0261,2.0267,2.0313,2.0327,2.0331,2.0377,2.0349,2.0352,2.0354,2.0355,2.0453,2.0453,0,0,0,0,0,0,2.0144,2.0154,2.0228,2.0232,2.0186,2.0227,2.0234,2.0251,2.0288,2.0293,2.0268,2.0268,2.0322,2.0328,2.0333,2.0373,2.0353,2.0355,2.0357,2.0452,2.0453,2.0454,0,0,0,0,0,0,2.0141,2.015,2.0226,2.0193,2.0203,2.023,2.0249,2.0253,2.0266,2.0294,2.0299,2.0277,2.0322,2.0329,2.0362,2.0375,2.0357,2.0359,2.0451,2.0452,2.0453,2.0452,0,0,0,0,0,0,2.0138,2.0149,2.0161,2.0193,2.0205,2.0254,2.025,2.0255,2.0271,2.0272,2.0303,2.0308,2.0322,2.0358,2.0365,2.0379,2.0362,2.045,2.0451,2.0453,2.0451,2.0453,2.0455,0,0,0,0,0,2.0135,2.0158,2.0162,2.017,2.022,2.0255,2.0261,2.0277,2.0272,2.0285,2.0303,2.0307,2.0373,2.0361,2.037,2.0384,2.0449,2.0451,2.0453,2.045,2.0453,2.0455,0,0,0,0,0,0,2.0125,2.0162,2.0167,2.0201,2.0225,2.0257,2.0272,2.0279,2.0304,2.0303,2.0321,2.0328,2.0361,2.0376,2.0362,2.0417,2.0411,2.0414,2.0406,2.0409,2.0411,2.0406,2.0364,0,0,0,0,0,2.0127,2.0152,2.0183,2.021,2.0222,2.0245,2.0261,2.0271,2.0296,2.0306,2.0327,2.0351,2.0377,2.0394,2.0419,2.0454,2.0462,2.0468,2.047,2.0472,2.0474,2.0495,2.0499,2.046,2.046,2.046,0,0,2.0131,2.0154,2.0169,2.0209,2.0228,2.0254,2.0253,2.028,2.0299,2.031,2.0343,2.0359,2.0387,2.0422,2.0438,2.0436,2.0487,2.0474,2.0475,2.0477,2.0498,2.0501,2.0505,2.0461,2.0461,2.0461,0,0,2.0151,2.0171,2.0197,2.0217,2.0247,2.0263,2.0269,2.0301,2.0312,2.0346,2.0355,2.0378,2.0423,2.0443,2.0459,2.049,2.0495,2.0498,2.0507,2.0528,2.0531,2.0534,2.0545,2.0549,2.0501,2.0501,2.0501,0,2.0152,2.0191,2.0209,2.0236,2.0253,2.0266,2.0292,2.0311,2.0347,2.0359,2.0356,2.0414,2.0434,2.0474,2.0482,2.0494,2.0502,2.0494,2.0529,2.0532,2.0535,2.0546,2.0551,2.0501,2.0501,2.0501,2.0501,0,2.0191,2.0218,2.0235,2.0271,2.0291,2.0318,2.034,2.0358,2.0367,2.0384,2.0419,2.0443,2.0475,2.0485,2.0494,2.0528,2.0525,2.0525,2.0519,2.0539,2.055,2.0554,2.0501,2.0501,2.0501,2.0501,0,0,2.0204,2.0252,2.0258,2.0276,2.0311,2.0332,2.036,2.0392,2.0408,2.0433,2.0457,2.0496,2.0497,2.0515,2.0527,2.0545,2.0569,2.0543,2.0544,2.0547,2.0608,2.0608,2.0612,2.0573,2.0574,2.0575,2.0606,0,2.0229,2.0279,2.0297,2.0338,2.0364,2.0377,2.0402,2.0426,2.0443,2.0468,2.0486,2.0514,2.0513,2.0524,2.0542,2.0562,2.0581,2.056,2.0596,2.0597,2.0588,2.0618,2.0617,2.0646,2.061,2.0611,2.0612,0,2.0264,2.0291,2.0335,2.037,2.0381,2.0403,2.0434,2.0458,2.0486,2.0497,2.0519,2.053,2.056,2.0553,2.0596,2.0581,2.0597,2.0609,2.0611,2.0614,2.0605,2.0622,2.0655,2.0659,2.0619,2.0618,2.0618,0,2.027,2.0318,2.0351,2.0366,2.0406,2.0421,2.0438,2.0467,2.0485,2.0513,2.0526,2.0556,2.0573,2.0597,2.0616,2.0609,2.0658,2.0651,2.0668,2.0667,2.0676,2.0675,2.0712,2.0687,2.0687,2.0687,2.0687,0,2.0296,2.0322,2.0355,2.0375,2.0406,2.0426,2.0456,2.0475,2.05,2.0525,2.0538,2.0561,2.0585,2.0611,2.0627,2.066,2.0667,2.0677,2.0681,2.0676,2.0675,2.0686,2.0685,2.0688,2.0688,2.0688,2.0687,0,2.0307,2.033,2.0367,2.0403,2.0413,2.0434,2.0465,2.0485,2.0503,2.0534,2.0543,2.0571,2.0603,2.0625,2.0665,2.0676,2.0712,2.0715,2.0702,2.0704,2.0719,2.0718,2.0764,2.0772,2.0742,2.0742,2.0742,0,2.0321,2.0342,2.0381,2.0399,2.0417,2.0445,2.0465,2.0487,2.0507,2.0543,2.0559,2.0592,2.0619,2.067,2.0694,2.0725,2.073,2.0744,2.0734,2.0729,2.073,2.0729,2.0731,2.0745,2.0745,2.0745,2.0746,0,2.0345,2.0356,2.0384,2.0416,2.044,2.0466,2.0493,2.0506,2.0533,2.0555,2.0588,2.061,2.0652,2.0685,2.0719,2.0738,2.0746,2.0749,2.0754,2.0749,2.0741,2.0746,2.0706,2.0747,2.0747,2.0747,2.0747,2.0747,2.0359,2.0379,2.041,2.0441,2.0463,2.0489,2.051,2.0532,2.056,2.0596,2.0608,2.0643,2.0673,2.072,2.0739,2.0767,2.0766,2.0774,2.0776,2.0777,2.0778,2.0737,2.0774,2.0774,2.0774,2.0773,2.0773,0,2.0383,2.0404,2.0433,2.047,2.0495,2.0503,2.0533,2.0553,2.0584,2.0612,2.0639,2.0678,2.071,2.0738,2.0772,2.0789,2.0794,2.0797,2.0796,2.08,2.0776,2.0768,2.0793,2.0793,2.0793,2.0793,2.0793,2.0793,2.0399,2.0433,2.0448,2.0494,2.0516,2.055,2.0567,2.0591,2.0613,2.0656,2.0684,2.0702,2.073,2.0767,2.0797,2.0805,2.0817,2.0819,2.0827,2.0804,2.0802,2.08,2.0792,2.0821,2.0821,2.0849,2.0849,2.085]},{"header":{"parameterUnit":"m.s-1","parameterCategory":1,"la1":30.2991,"la2":30.254,"lo1":-89.0895,"lo2":-89.0444,"dy":0.0017,"dx":0.0017,"nx":28,"ny":28,"refTime":"2026-01-11T03:00:00:Z","depth":0,"parameterNumber":3,"parameterNumberName":"V-component_of_WINDS"},"data":[0,0,0,0,0,0,0,0,0,0,0,0,0,0,0,0,0,0,0,0,0,0,0,0,0,0,0,0,0,0,0,0,0,0,0,0,0,0,0,0,0,0,0,0,0,0,0,0,0,0,0,0,0,0,0,0,0,0,-8.8767,-8.8768,0,-8.8917,-8.8918,-8.892,-8.8862,-8.8858,-8.8855,-8.8852,-8.8998,-8.9005,-8.9012,0,0,0,0,0,0,0,0,0,0,0,0,0,-8.8425,-8.8431,-8.8767,-8.8769,-8.877,-8.8917,-8.8919,-8.8921,-8.8863,-8.8858,-8.8854,-8.885,-8.8996,-8.9004,-8.9013,0,0,0,0,0,0,0,0,0,0,0,0,0,-8.8574,-8.8434,-8.8766,-8.8759,-8.876,-8.8916,-8.8919,-8.8921,-8.8863,-8.8858,-8.8853,-8.8848,-8.8993,-8.9003,-8.9014,-8.9183,0,0,-8.9046,-8.9051,0,0,0,0,0,0,0,0,-8.8565,-8.8586,-8.8758,-8.876,-8.8761,-8.8866,-8.8852,-8.9009,-8.8865,-8.8824,-8.8852,-8.8846,-8.8958,-8.8971,-8.901,-8.919,-8.9196,-8.9047,-8.9054,-8.9058,-8.9061,0,0,0,0,0,0,0,-8.8555,-8.8579,-8.8826,-8.8761,-8.8763,-8.8747,-8.8762,-8.8881,-8.8918,-8.8827,-8.8823,-8.8842,-8.8957,-8.9,-8.9013,-8.9199,-8.9047,-8.9057,-8.9063,-8.9067,-8.9527,-8.9533,0,0,0,0,0,0,-8.8545,-8.8571,-8.8821,-8.883,-8.8649,-8.8757,-8.8775,-8.8837,-8.8916,-8.8924,-8.8847,-8.8839,-8.8984,-8.9001,-8.9018,-8.9223,-8.9058,-8.9068,-8.9074,-8.9521,-8.9529,-8.9535,0,0,0,0,0,0,-8.8538,-8.8568,-8.8815,-8.87,-8.873,-8.8769,-8.8839,-8.8843,-8.8885,-8.8931,-8.8937,-8.8884,-8.8981,-8.9003,-8.9144,-8.9227,-8.9073,-8.9083,-8.9515,-8.9524,-8.9532,-8.9634,0,0,0,0,0,0,-8.8528,-8.8566,-8.8632,-8.8702,-8.8737,-8.894,-8.8845,-8.885,-8.8905,-8.8897,-8.8968,-8.8974,-8.8979,-8.9128,-8.9154,-8.9239,-8.9091,-8.9507,-8.9519,-8.9529,-8.9623,-8.9645,-8.9664,0,0,0,0,0,-8.8516,-8.8652,-8.8635,-8.8666,-8.882,-8.8945,-8.8964,-8.8969,-8.8912,-8.8978,-8.9008,-8.8972,-8.9214,-8.9143,-8.9172,-8.9261,-8.9502,-8.9515,-8.9528,-8.9614,-8.9641,-8.9664,0,0,0,0,0,0,-8.8587,-8.8661,-8.8643,-8.8806,-8.887,-8.8935,-8.9018,-8.8997,-8.9076,-8.9064,-8.9064,-8.908,-8.9226,-8.9257,-8.9177,-8.9431,-8.9349,-8.9369,-8.9405,-8.9431,-8.9451,-8.944,-8.91,0,0,0,0,0,-8.8623,-8.872,-8.8778,-8.8916,-8.895,-8.8979,-8.9033,-8.9032,-8.9097,-8.9123,-8.9162,-8.9225,-8.9315,-8.9375,-8.946,-8.9628,-8.9643,-8.9704,-8.9724,-8.9741,-8.9757,-8.985,-8.9878,-8.9578,-8.9578,-8.9577,0,0,-8.8695,-8.8748,-8.8808,-8.8932,-8.8981,-8.9081,-8.9002,-8.9109,-8.9183,-8.9138,-8.9274,-8.9306,-8.9376,-8.9532,-8.9602,-8.9562,-8.9844,-8.9757,-8.977,-8.9778,-8.9866,-8.9895,-8.992,-8.9587,-8.9585,-8.9584,0,0,-8.8878,-8.8928,-8.905,-8.9102,-8.9179,-8.9198,-8.9227,-8.9297,-8.9317,-8.9455,-8.9424,-8.951,-8.9665,-8.9717,-8.9764,-8.9971,-8.9941,-8.9998,-9.0104,-9.0194,-9.0218,-9.0239,-9.0313,-9.034,-9.0015,-9.0015,-9.0015,0,-8.8958,-8.9109,-8.9114,-8.9226,-8.9282,-8.9249,-8.9372,-8.9422,-8.9522,-8.956,-8.9515,-8.9712,-8.9756,-8.9924,-8.9975,-9.0014,-9.0047,-8.999,-9.0214,-9.0235,-9.0255,-9.0326,-9.0354,-9.0021,-9.0021,-9.002,-9.0019,0,-8.9203,-8.9309,-8.9397,-8.9499,-8.9564,-8.9681,-8.9703,-8.9768,-8.9762,-8.9785,-8.9926,-8.9979,-9.0076,-9.0116,-9.0108,-9.0284,-9.0257,-9.0214,-9.0131,-9.029,-9.0357,-9.0384,-9.0031,-9.0028,-9.0027,-9.0025,0,0,-8.9433,-8.9539,-8.9572,-8.9619,-8.9703,-8.9783,-8.9898,-8.9996,-9.0053,-9.0123,-9.022,-9.0354,-9.0315,-9.0368,-9.0367,-9.0446,-9.0608,-9.0393,-9.0395,-9.0432,-9.0806,-9.0838,-9.087,-9.059,-9.0595,-9.0599,-9.08,0,-8.9624,-8.9829,-8.9839,-9.0025,-9.0123,-9.0095,-9.0196,-9.0257,-9.0283,-9.0368,-9.0395,-9.0491,-9.0432,-9.0464,-9.0542,-9.0572,-9.0683,-9.0558,-9.0678,-9.0683,-9.0662,-9.0904,-9.0939,-9.1126,-9.0826,-9.083,-9.0834,0,-8.9873,-8.9956,-9.0153,-9.0226,-9.0267,-9.0358,-9.0449,-9.0532,-9.0601,-9.0614,-9.0676,-9.0664,-9.0781,-9.0696,-9.0857,-9.0772,-9.0822,-9.0845,-9.0852,-9.0863,-9.0768,-9.0922,-9.1185,-9.1214,-9.0875,-9.0871,-9.0868,0,-9.0022,-9.0182,-9.0322,-9.0362,-9.045,-9.0515,-9.0554,-9.0619,-9.0679,-9.0758,-9.0796,-9.0887,-9.0937,-9.1007,-9.1019,-9.0956,-9.1182,-9.1097,-9.1195,-9.1195,-9.1243,-9.124,-9.1518,-9.1275,-9.1275,-9.1274,-9.1274,0,-9.0234,-9.0356,-9.039,-9.0476,-9.0612,-9.0622,-9.0755,-9.0789,-9.0848,-9.0939,-9.0919,-9.1004,-9.1016,-9.1104,-9.1114,-9.1247,-9.1269,-9.1282,-9.1284,-9.1284,-9.1283,-9.1317,-9.1304,-9.1282,-9.128,-9.1278,-9.1277,0,-9.0423,-9.0451,-9.0601,-9.0674,-9.0696,-9.0793,-9.0854,-9.0936,-9.096,-9.1076,-9.1103,-9.1141,-9.1244,-9.1264,-9.1384,-9.1391,-9.155,-9.1538,-9.1527,-9.1526,-9.1623,-9.1614,-9.1932,-9.1975,-9.1704,-9.1707,-9.1709,0,-9.0556,-9.065,-9.0734,-9.0796,-9.0839,-9.0937,-9.0999,-9.1012,-9.1076,-9.1165,-9.1236,-9.1338,-9.1419,-9.1585,-9.1622,-9.1714,-9.1704,-9.181,-9.1718,-9.1716,-9.1707,-9.1701,-9.1711,-9.1827,-9.183,-9.1832,-9.1834,0,-9.079,-9.08,-9.0891,-9.0988,-9.1063,-9.1139,-9.121,-9.1261,-9.1284,-9.1357,-9.1464,-9.1528,-9.1654,-9.1755,-9.1848,-9.1886,-9.1864,-9.1864,-9.1891,-9.1893,-9.1883,-9.189,-9.1576,-9.1856,-9.1853,-9.1852,-9.1851,-9.185,-9.0955,-9.1038,-9.1112,-9.1214,-9.1271,-9.134,-9.1421,-9.1458,-9.1548,-9.1653,-9.1655,-9.1772,-9.184,-9.1964,-9.2009,-9.2099,-9.2065,-9.2105,-9.2115,-9.2125,-9.2135,-9.187,-9.2116,-9.2115,-9.2115,-9.2114,-9.2114,0,-9.1189,-9.1236,-9.133,-9.1434,-9.1514,-9.1491,-9.157,-9.1638,-9.1743,-9.181,-9.1892,-9.2016,-9.2115,-9.2161,-9.2258,-9.2322,-9.2314,-9.2347,-9.2342,-9.2351,-9.2158,-9.2125,-9.2351,-9.2351,-9.2351,-9.2351,-9.2351,-9.2351,-9.132,-9.146,-9.1479,-9.1647,-9.1692,-9.181,-9.1857,-9.192,-9.1975,-9.2115,-9.2198,-9.2229,-9.2288,-9.2389,-9.2479,-9.249,-9.2526,-9.2564,-9.257,-9.2389,-9.2365,-9.2341,-9.231,-9.2571,-9.2572,-9.2755,-9.2757,-9.2758]}]]